Wind_Speed
19 19 18 18 20 20 20 20 19 18 21 22 21 20 19 18 18 16 16 16 15 14 14 15 16 15 15 15 14 14 15 15 14 13 12 13 13 13 13 13 13 12 12 12
19 18 18 19 20 20 20 20 20 20 21 22 22 21 20 19 18 18 18 18 18 17 17 16 17 17 16 16 16 15 16 16 16 15 14 14 14 15 15 14 14 13 13 12
18 18 18 19 19 20 20 20 20 21 22 22 23 23 22 21 20 21 20 20 20 19 18 18 18 18 18 18 17 17 17 18 18 17 16 15 15 16 15 15 14 13 13 12
19 18 19 19 19 19 20 20 21 22 23 24 25 25 24 23 23 23 23 22 22 21 21 20 20 20 20 20 19 19 19 19 19 18 18 17 17 18 17 15 14 14 14 14
19 18 18 19 18 19 19 21 23 23 24 25 26 27 26 25 24 24 25 24 24 23 23 23 23 22 22 22 21 21 21 21 21 20 19 19 19 19 18 17 16 16 15 15
20 19 19 18 19 20 21 22 24 24 24 25 25 27 26 24 25 25 25 25 25 24 25 24 24 24 24 23 24 23 22 21 22 22 21 21 20 20 19 19 18 17 17 16
19 19 19 19 20 21 21 23 24 25 25 26 25 27 26 24 25 25 25 25 25 25 26 26 26 26 25 25 25 24 23 23 23 23 22 22 22 21 19 19 20 20 19 18
18 18 19 19 20 21 21 22 24 25 25 25 26 27 26 25 25 25 26 26 26 27 27 27 28 28 28 27 27 26 26 25 24 23 22 22 22 21 21 21 21 22 21 20
17 17 18 19 20 21 22 23 24 25 27 27 27 27 27 26 26 26 26 27 27 27 27 28 28 28 29 29 28 28 27 25 24 23 22 22 22 22 22 23 23 23 22 22
16 17 18 20 21 22 23 23 24 26 27 28 27 27 26 26 26 26 26 27 28 27 28 28 29 30 30 30 30 28 27 26 24 22 22 23 23 23 23 23 23 24 23 23
17 18 19 20 21 22 23 23 24 26 28 28 29 28 27 27 26 27 27 27 27 28 28 29 29 30 31 31 30 28 27 27 26 25 25 24 24 24 24 24 23 23 24 24
18 19 20 21 22 23 24 24 25 26 27 28 29 29 27 28 28 28 28 28 29 29 29 30 29 29 29 29 29 29 28 28 27 27 26 24 24 25 26 26 25 25 25 26
19 20 21 22 23 24 25 25 26 26 27 28 29 29 28 29 29 29 29 30 30 30 30 30 30 30 30 30 29 29 28 29 29 28 27 26 25 25 27 27 27 27 28 28
21 22 22 23 24 25 26 27 27 27 28 29 29 29 28 29 30 29 29 30 30 31 32 32 32 31 31 31 31 30 28 28 28 27 27 27 27 27 27 28 29 29 29 29
21 22 23 23 25 26 26 26 27 27 28 30 29 29 29 29 29 29 29 30 30 31 32 32 33 32 31 30 30 30 30 28 28 28 28 29 30 30 30 30 30 29 29 29
22 23 23 24 24 26 26 26 27 27 28 29 29 29 29 29 29 29 30 30 31 30 30 31 32 31 31 31 31 30 31 30 29 30 30 31 32 32 31 30 30 29 28 28
23 23 24 24 25 27 26 26 27 28 28 29 29 28 29 29 29 29 30 30 30 29 29 29 30 30 32 32 32 32 31 31 31 31 32 32 32 32 31 31 31 30 29 28
23 24 24 24 25 26 26 26 27 28 29 29 28 28 28 29 29 29 30 30 30 30 29 30 30 31 32 32 31 31 32 32 32 33 33 32 33 33 32 32 30 30 30 29
23 24 25 25 25 26 26 26 26 27 26 27 27 27 28 29 29 29 30 31 30 30 30 30 30 30 31 31 31 31 31 32 32 31 31 32 32 32 32 31 30 30 29 29
23 24 24 25 25 25 24 24 25 25 25 25 25 26 26 27 28 28 29 30 30 30 30 30 30 30 30 30 30 29 29 30 30 29 30 31 31 31 30 30 30 31 30 29
23 23 23 24 24 23 23 23 23 23 23 23 24 24 25 26 26 27 28 28 28 29 29 29 29 29 28 28 28 28 28 28 28 28 28 29 30 30 30 29 30 30 30 30
21 22 23 23 23 23 22 22 22 22 22 22 23 24 25 26 25 26 27 27 27 27 28 28 28 27 26 26 26 27 27 27 28 28 28 29 28 29 29 30 30 30 30 30
21 21 22 23 23 23 22 22 22 22 23 23 24 24 25 24 25 25 25 26 26 26 26 26 26 25 25 24 25 26 26 27 27 27 28 28 28 28 29 29 29 29 30 29
21 21 22 22 22 22 22 23 23 23 23 23 24 24 24 24 24 24 24 25 24 24 24 24 24 24 24 25 26 26 26 26 26 26 27 27 28 28 28 27 28 28 28 28
20 21 21 22 22 22 21 22 23 23 23 23 24 24 24 23 23 24 24 24 24 24 24 23 24 24 25 25 25 25 25 25 26 26 27 27 27 27 27 27 26 26 26 27
20 21 22 22 22 23 22 22 23 23 23 24 24 23 23 23 23 23 23 24 24 22 23 23 23 24 24 24 25 25 25 25 25 26 26 26 26 26 26 26 26 25 25 25
Wind_Direction
236 237 238 240 240 241 242 242 242 241 247 250 252 254 259 262 265 267 269 274 280 284 289 293 293 293 293 291 290 290 292 291 290 289 288 287 289 292 292 291 290 288 284 282
235 237 239 240 240 241 242 242 241 243 247 250 252 255 259 262 266 267 268 270 274 279 284 288 292 291 287 285 284 286 287 287 287 285 281 282 284 287 285 282 283 281 282 283
238 240 242 243 243 241 242 241 242 244 249 253 254 255 258 262 266 268 269 269 271 276 281 282 286 287 285 284 283 282 283 284 284 285 280 278 282 283 284 284 284 282 280 281
238 240 242 242 243 245 243 243 244 246 249 252 255 257 258 261 265 269 270 270 271 273 277 280 282 283 282 281 279 279 280 279 279 280 279 279 281 284 281 279 280 277 273 275
239 240 242 243 244 246 245 246 247 249 251 253 257 261 263 264 265 268 271 271 271 271 274 277 278 279 279 278 277 279 279 277 276 276 276 277 277 281 278 276 278 273 269 272
239 240 241 242 243 246 246 249 250 252 256 258 262 265 267 268 269 268 270 271 273 272 274 276 276 277 278 277 278 279 279 276 276 274 276 277 277 280 277 274 272 272 271 271
240 241 241 243 246 248 249 250 253 255 257 261 264 267 271 273 272 271 272 272 273 274 276 276 275 276 277 277 276 275 277 276 275 276 277 276 273 277 276 275 274 272 272 273
241 244 245 246 249 252 252 252 255 259 259 261 264 268 273 275 275 274 274 272 273 274 275 276 275 275 275 276 276 275 276 278 279 278 275 274 272 275 275 273 274 274 273 274
243 242 246 248 250 251 252 252 257 261 262 263 266 269 273 275 275 276 275 274 274 275 276 275 275 275 275 275 275 276 274 278 279 281 279 276 274 275 277 275 273 272 272 273
243 243 244 248 251 252 254 255 257 261 265 267 269 272 276 278 278 278 277 276 275 275 274 273 273 273 273 274 273 274 275 278 278 278 278 275 274 275 276 275 273 272 271 272
247 249 249 250 253 256 256 257 260 264 267 271 273 276 279 281 281 281 279 279 279 277 275 274 274 273 272 272 274 275 274 272 273 275 276 276 276 275 275 273 272 272 272 273
252 254 255 254 256 259 261 261 264 267 269 271 274 277 280 280 281 282 282 281 280 281 279 277 277 277 276 274 274 274 272 269 269 270 273 275 275 272 272 272 272 272 272 272
257 258 260 260 261 262 264 265 266 268 270 272 274 277 279 280 281 282 283 283 283 283 282 279 279 277 276 274 274 275 274 270 268 269 271 271 272 273 273 273 271 272 273 272
262 261 262 264 266 266 265 266 267 267 270 273 275 278 279 282 281 281 282 283 283 283 282 280 279 279 277 275 275 275 276 273 271 270 270 270 271 271 272 272 272 274 272 270
262 263 264 265 265 265 265 267 269 270 272 275 278 279 280 282 282 281 282 283 283 284 283 281 279 279 277 275 273 273 274 273 271 272 271 271 271 272 272 273 273 273 271 270
263 264 266 268 268 266 265 267 269 271 274 277 279 280 282 282 282 282 283 283 283 283 282 280 278 277 275 274 272 272 272 272 271 271 272 273 274 274 273 274 274 273 270 268
264 264 267 269 270 269 269 269 269 272 275 278 280 282 283 283 284 284 284 284 283 282 281 279 278 276 275 274 272 271 272 273 273 273 274 275 275 277 274 274 274 273 270 268
266 266 268 272 272 271 274 274 274 275 276 279 281 282 283 285 286 285 286 286 284 283 283 281 280 279 276 274 274 274 273 274 274 275 276 277 279 279 277 276 273 272 269 267
266 268 271 273 274 274 275 276 278 278 279 280 282 282 282 285 287 287 288 288 286 285 284 283 283 283 280 276 274 274 274 275 275 275 275 275 277 277 275 273 271 270 268 266
267 269 271 273 275 277 278 277 279 281 281 281 282 282 283 284 286 288 288 288 287 286 284 284 283 283 281 277 275 275 275 275 276 276 276 275 275 275 273 271 270 269 268 265
269 270 272 276 278 280 279 279 281 282 284 283 285 285 287 288 288 289 290 290 289 287 286 286 286 284 282 278 275 274 275 275 276 276 277 276 275 274 272 272 270 268 266 265
272 273 274 276 277 281 282 280 281 284 286 287 288 289 290 291 291 292 292 291 291 290 288 288 288 286 283 280 279 277 277 275 274 275 275 275 275 274 272 271 270 269 267 266
274 276 277 277 278 279 280 280 281 283 285 287 288 289 290 291 293 294 294 292 291 290 289 288 288 287 286 284 283 282 280 277 275 274 274 274 274 275 274 273 270 269 268 267
273 274 276 277 278 279 279 279 280 282 284 285 286 287 289 292 294 294 294 292 291 290 290 290 288 287 287 285 284 284 281 277 276 274 274 274 274 273 273 273 271 270 269 268
275 276 277 278 280 280 280 281 283 283 285 287 287 288 288 290 293 295 295 294 294 293 292 289 290 290 290 287 284 283 281 278 275 274 275 275 274 273 271 272 271 270 269 267
276 277 278 278 280 281 281 281 283 285 286 288 288 288 289 289 292 294 294 295 297 293 291 291 291 291 291 290 288 285 282 281 278 277 276 276 275 274 272 271 270 270 268 266
Height
5859 5862 5864 5865 5866 5868 5869 5870 5872 5874 5873 5874 5875 5876 5878 5878 5879 5880 5880 5880 5880 5880 5879 5879 5878 5877 5877 5876 5876 5875 5875 5874 5873 5873 5872 5871 5870 5870 5869 5868 5867 5866 5865 5864
5857 5859 5860 5861 5862 5864 5865 5867 5869 5870 5870 5870 5871 5872 5873 5874 5875 5876 5876 5876 5876 5876 5876 5875 5874 5874 5873 5873 5872 5872 5872 5871 5870 5869 5869 5868 5867 5867 5865 5864 5864 5863 5862 5861
5853 5856 5856 5857 5858 5860 5862 5864 5865 5866 5866 5866 5867 5869 5870 5871 5871 5871 5871 5871 5871 5871 5871 5871 5870 5870 5869 5869 5868 5868 5867 5867 5866 5866 5864 5864 5863 5863 5862 5861 5860 5859 5859 5858
5849 5851 5852 5853 5855 5856 5858 5860 5860 5861 5862 5862 5863 5863 5865 5866 5866 5866 5866 5866 5867 5867 5867 5866 5866 5865 5864 5864 5864 5863 5863 5862 5862 5861 5860 5859 5859 5858 5858 5857 5856 5856 5855 5855
5845 5847 5848 5850 5852 5853 5854 5855 5856 5856 5857 5858 5859 5858 5860 5861 5861 5862 5861 5861 5861 5862 5862 5861 5861 5860 5859 5859 5858 5858 5858 5857 5857 5856 5855 5855 5854 5853 5853 5852 5852 5852 5851 5851
5841 5843 5844 5846 5847 5848 5850 5850 5851 5852 5852 5853 5854 5854 5854 5855 5856 5856 5856 5856 5856 5856 5856 5856 5855 5855 5854 5853 5853 5852 5852 5851 5850 5850 5849 5849 5848 5848 5847 5847 5847 5847 5847 5847
5837 5839 5840 5842 5843 5844 5845 5846 5847 5847 5847 5848 5849 5848 5850 5850 5850 5851 5851 5850 5850 5850 5850 5849 5849 5848 5848 5847 5846 5846 5845 5845 5844 5843 5843 5842 5842 5842 5841 5842 5842 5842 5842 5842
5833 5835 5837 5838 5839 5840 5840 5842 5843 5843 5843 5844 5844 5843 5845 5845 5845 5845 5845 5844 5844 5844 5843 5843 5842 5842 5841 5840 5840 5839 5838 5838 5838 5836 5835 5835 5836 5836 5836 5836 5836 5836 5836 5837
5829 5831 5832 5833 5834 5835 5836 5836 5838 5838 5837 5838 5838 5839 5839 5839 5839 5838 5838 5838 5837 5837 5836 5836 5835 5834 5833 5833 5832 5832 5832 5831 5830 5829 5829 5829 5830 5830 5830 5830 5830 5830 5830 5830
5825 5827 5828 5828 5829 5830 5831 5832 5832 5832 5831 5831 5832 5832 5833 5833 5833 5832 5831 5831 5830 5830 5829 5828 5828 5827 5826 5826 5825 5824 5825 5824 5824 5824 5823 5823 5823 5823 5823 5823 5823 5824 5824 5824
5821 5822 5823 5824 5824 5825 5826 5827 5826 5826 5826 5826 5825 5828 5827 5827 5826 5825 5825 5824 5823 5822 5822 5820 5820 5819 5818 5818 5817 5817 5817 5817 5817 5817 5817 5817 5817 5817 5817 5817 5817 5817 5817 5817
5817 5818 5818 5819 5820 5820 5820 5820 5821 5821 5820 5820 5819 5823 5820 5819 5819 5818 5818 5817 5816 5814 5813 5812 5811 5811 5810 5810 5809 5809 5809 5810 5810 5810 5810 5809 5810 5809 5809 5809 5809 5810 5810 5810
5812 5813 5813 5814 5816 5815 5814 5814 5814 5815 5814 5813 5813 5816 5813 5812 5811 5811 5810 5809 5808 5806 5805 5804 5803 5802 5802 5802 5801 5801 5801 5801 5801 5802 5802 5802 5802 5802 5802 5801 5802 5802 5802 5802
5807 5807 5809 5810 5809 5808 5808 5808 5808 5808 5807 5807 5807 5807 5807 5805 5804 5803 5802 5801 5799 5798 5796 5795 5794 5793 5793 5793 5793 5793 5793 5793 5793 5794 5794 5795 5795 5794 5794 5794 5794 5794 5793 5793
5801 5801 5802 5802 5802 5802 5802 5802 5802 5801 5801 5801 5801 5800 5800 5798 5797 5795 5794 5792 5791 5789 5787 5786 5785 5784 5784 5784 5784 5785 5785 5785 5785 5786 5786 5786 5786 5786 5786 5785 5785 5784 5784 5784
5795 5795 5795 5795 5795 5795 5795 5796 5795 5795 5794 5794 5793 5793 5792 5791 5789 5787 5786 5784 5782 5781 5779 5777 5776 5776 5775 5776 5776 5776 5777 5777 5777 5777 5777 5777 5777 5776 5776 5776 5776 5775 5775 5775
5789 5789 5789 5789 5789 5788 5789 5789 5789 5788 5787 5787 5786 5786 5784 5782 5781 5779 5778 5776 5774 5772 5770 5769 5767 5767 5767 5767 5767 5767 5767 5768 5768 5767 5767 5767 5766 5766 5766 5766 5766 5766 5766 5766
5783 5782 5782 5783 5783 5782 5785 5782 5781 5780 5780 5779 5779 5778 5776 5775 5773 5771 5769 5767 5766 5764 5762 5760 5759 5758 5757 5757 5757 5758 5758 5758 5758 5758 5757 5757 5757 5757 5757 5757 5756 5756 5757 5757
5777 5777 5776 5777 5776 5776 5777 5776 5774 5773 5773 5772 5771 5771 5769 5767 5765 5764 5761 5759 5757 5755 5754 5752 5750 5749 5748 5748 5748 5749 5749 5748 5748 5748 5748 5748 5747 5747 5746 5747 5747 5747 5747 5748
5771 5771 5771 5770 5769 5769 5771 5769 5767 5768 5766 5766 5764 5763 5762 5760 5758 5757 5754 5751 5749 5747 5745 5743 5742 5740 5739 5739 5738 5739 5739 5739 5739 5739 5739 5738 5738 5737 5737 5737 5737 5737 5738 5738
5765 5765 5764 5763 5762 5763 5764 5762 5762 5762 5761 5759 5757 5756 5754 5753 5751 5749 5746 5743 5741 5739 5737 5735 5733 5732 5731 5730 5730 5730 5730 5730 5730 5730 5729 5729 5728 5728 5728 5727 5727 5727 5728 5728
5759 5759 5758 5758 5757 5759 5757 5756 5756 5755 5753 5752 5751 5749 5748 5746 5744 5741 5738 5736 5733 5731 5729 5727 5725 5723 5722 5722 5721 5721 5721 5721 5721 5721 5721 5720 5719 5718 5718 5718 5718 5718 5718 5719
5753 5754 5753 5753 5754 5752 5750 5750 5749 5748 5747 5746 5745 5743 5741 5739 5736 5734 5731 5729 5726 5724 5722 5719 5717 5716 5715 5714 5713 5713 5713 5712 5712 5712 5712 5711 5710 5709 5709 5709 5708 5708 5708 5709
5748 5747 5747 5746 5746 5745 5744 5743 5743 5742 5741 5740 5738 5737 5734 5732 5730 5727 5725 5722 5719 5717 5715 5712 5711 5709 5708 5706 5706 5705 5704 5704 5703 5703 5703 5702 5701 5700 5700 5699 5699 5699 5699 5700
5742 5741 5740 5740 5740 5739 5738 5737 5737 5736 5734 5733 5731 5730 5727 5725 5723 5721 5718 5715 5713 5710 5708 5706 5704 5703 5701 5699 5698 5697 5696 5695 5695 5694 5694 5693 5692 5691 5691 5691 5690 5690 5691 5691
5736 5736 5735 5734 5734 5733 5732 5731 5730 5729 5728 5726 5724 5723 5721 5719 5717 5714 5712 5709 5707 5704 5702 5700 5698 5696 5695 5693 5691 5690 5688 5687 5687 5686 5685 5684 5683 5682 5682 5681 5682 5681 5682 5682